Temperature
17 17 17 17 17 17 17 18 18 17 17 17 17 17 17 17 17 17 17 17 17 17 17 17 17 17 17 16 16 16 16 17 17 17 17 17 17 17 17 17 16 16 16
18 18 17 17 17 17 17 17 17 17 17 17 17 17 17 17 17 17 17 17 17 17 17 16 16 16 16 16 16 16 16 16 16 16 17 17 16 16 16 16 16 16 16
18 17 17 17 17 17 17 17 17 17 17 17 17 17 17 17 17 17 17 17 17 16 16 16 16 16 16 16 16 16 16 16 16 16 16 16 16 16 16 16 16 16 16
18 17 17 17 17 17 17 17 17 17 17 17 17 17 17 16 16 16 16 16 16 16 16 16 16 16 16 16 16 16 16 16 16 16 16 16 16 16 16 16 16 15 15
17 17 17 17 17 17 17 17 17 17 17 17 17 16 16 16 16 16 16 16 16 16 16 16 16 15 15 15 15 15 15 15 15 15 15 15 15 15 15 15 15 15 15
17 17 17 17 17 17 17 17 17 17 17 16 16 16 16 16 16 16 16 16 16 16 16 15 15 15 15 15 15 15 15 15 15 15 15 15 15 15 15 14 14 14 14
17 17 17 17 17 17 17 17 16 16 16 16 16 16 16 16 16 16 15 15 15 15 15 15 15 15 15 15 15 15 15 15 15 14 14 14 14 14 14 14 14 13 13
17 17 17 17 16 16 16 16 16 16 16 16 16 16 16 15 15 15 15 15 15 15 15 15 15 15 15 14 14 14 14 14 14 14 14 14 13 13 13 13 13 13 13
16 16 16 16 16 16 16 16 16 16 16 15 15 15 15 15 15 15 15 15 15 14 14 14 14 14 14 14 14 14 14 14 14 13 13 13 13 13 12 12 12 12 12
16 16 16 16 16 16 16 15 15 15 15 15 15 15 15 15 15 15 14 14 14 14 14 14 14 13 13 13 13 13 13 13 13 13 13 12 12 12 12 12 11 11 11
15 16 16 16 15 15 15 15 15 15 15 14 14 14 14 14 14 14 14 14 14 14 13 13 13 13 13 13 13 13 13 12 12 12 12 12 12 12 11 11 11 11 10
15 15 15 15 15 15 15 14 14 14 14 14 14 14 14 13 14 13 13 13 13 13 13 12 12 12 12 12 12 12 12 12 12 11 11 11 11 11 11 11 10 10 10
15 15 14 14 14 14 14 14 14 14 14 13 13 13 13 13 13 13 13 13 12 12 12 12 12 12 11 11 11 11 11 11 11 11 10 10 10 10 10 10 10 10 10
14 14 14 14 14 13 13 13 13 13 13 13 12 12 12 12 12 12 12 12 12 11 11 11 11 11 11 11 11 11 10 10 10 10 10 10 9 9 9 9 9 9 9
13 13 13 13 13 13 13 12 12 12 12 12 12 11 11 11 11 11 11 11 11 10 10 10 10 10 10 10 10 10 10 9 9 9 9 9 8 8 8 8 8 8 8
13 13 13 13 13 12 12 12 12 11 11 11 11 11 11 10 10 10 10 10 10 10 10 10 9 9 9 9 9 9 8 8 8 8 8 8 8 8 8 7 7 7 7
13 12 12 12 12 12 12 12 11 11 11 10 10 10 10 10 10 9 9 9 9 9 9 9 8 8 8 8 8 8 8 7 7 7 7 7 7 7 7 7 6 6 6
12 12 12 12 11 11 11 11 11 11 10 10 9 9 9 9 9 9 9 9 9 8 8 8 7 7 7 7 7 7 7 7 6 6 6 6 6 6 6 6 6 6 5
12 12 11 11 11 11 11 10 10 10 10 9 9 9 9 9 8 8 8 8 8 8 7 7 7 6 6 6 6 6 6 6 6 6 5 5 5 5 5 5 5 5 5
11 11 11 11 11 10 10 10 10 9 9 9 9 8 8 8 8 8 7 7 7 7 6 6 6 6 6 5 5 5 5 5 5 5 5 5 5 5 5 5 5 4 4
11 10 10 10 10 10 10 9 9 9 9 8 8 7 7 7 7 7 6 6 6 6 6 6 5 5 5 5 5 4 4 4 4 4 4 4 4 4 4 4 4 4 4
10 10 10 9 9 9 9 8 8 8 8 8 7 7 7 7 6 6 6 6 5 5 5 5 5 5 4 4 4 4 4 4 4 4 4 4 4 4 4 4 4 4 4
9 9 9 9 8 8 8 8 7 7 7 7 7 6 6 6 6 5 5 5 5 5 4 4 4 4 4 4 3 3 3 3 3 3 3 3 3 3 3 3 3 3 3
8 8 8 8 8 7 7 7 7 6 6 6 6 6 5 5 5 5 5 4 4 4 4 4 4 3 3 3 3 3 3 3 3 3 3 3 3 3 3 3 3 3 3
8 7 7 7 7 7 6 6 6 6 5 5 5 5 4 4 4 4 4 4 4 3 3 3 3 3 3 3 3 3 3 3 3 3 3 3 3 3 3 3 3 3 3
7 7 6 6 6 6 6 5 5 5 5 4 4 4 4 4 4 4 3 3 3 3 3 3 3 3 3 3 3 3 3 3 3 3 3 3 3 3 3 3 3 3 3
Wind_Speed
8 7 7 6 6 6 7 8 8 8 8 8 9 9 9 8 8 8 7 6 6 5 4 5 5 4 3 2 2 3 3 4 4 4 3 2 2 3 4 9 12 12 13
8 7 7 6 6 6 6 7 7 7 7 8 8 8 9 8 8 9 8 7 6 6 5 5 5 4 4 3 2 3 3 4 4 4 3 2 3 4 3 4 6 8 11
7 7 7 6 7 7 6 6 7 7 6 6 7 8 8 7 7 8 8 7 6 6 6 5 5 4 4 3 3 3 2 2 3 3 3 2 2 2 1 3 3 3 7
7 7 7 7 7 7 7 6 7 7 7 6 6 6 6 6 6 6 6 6 5 4 4 5 5 5 6 5 4 4 3 2 2 2 3 2 2 2 1 2 3 3 4
7 6 6 6 6 6 6 6 6 6 6 6 6 5 5 5 5 6 5 6 5 5 4 4 4 5 7 6 4 4 4 3 2 2 2 2 2 1 2 3 3 4 4
6 6 5 5 6 6 7 7 6 6 5 5 5 5 5 4 5 7 7 5 5 5 5 4 4 5 6 7 7 7 7 5 5 3 3 3 4 4 3 3 3 2 4
6 6 5 6 5 5 6 6 6 6 5 5 4 5 4 3 5 6 7 5 4 4 5 5 4 4 4 4 5 6 6 7 7 5 5 5 4 5 3 3 3 4 5
6 6 6 6 5 5 5 5 5 5 5 5 4 4 3 2 4 5 6 4 3 4 4 4 4 3 2 3 3 3 4 4 5 4 5 6 5 4 4 4 4 4 4
5 4 4 5 5 5 6 5 4 5 5 4 4 4 4 2 2 3 4 2 2 2 2 2 2 2 3 3 2 3 4 4 4 5 6 6 6 5 3 1 1 1 4
5 5 5 5 6 6 5 5 4 5 5 5 5 4 4 3 2 2 4 2 2 1 0 0 1 1 1 1 2 2 4 4 2 2 3 4 4 4 5 4 4 3 3
5 7 7 6 6 5 6 6 6 6 6 6 6 5 5 5 5 5 4 2 2 1 1 1 1 1 1 1 1 2 4 2 1 2 2 3 2 2 2 3 4 4 5
7 8 8 8 7 8 8 7 7 7 8 6 7 6 5 5 6 6 7 5 3 2 1 1 1 3 3 2 1 1 2 1 1 1 2 2 3 3 3 3 4 5 6
10 10 10 10 9 8 9 8 7 7 7 6 6 6 4 5 6 8 7 6 5 3 2 3 3 3 4 3 3 2 2 1 1 1 2 3 3 4 3 3 3 4 5
11 9 9 9 9 9 8 7 7 6 6 6 5 4 4 4 4 4 4 4 6 5 3 4 5 6 5 4 4 3 2 1 1 1 3 3 3 3 3 3 3 3 3
10 9 9 8 8 9 9 7 7 5 5 6 4 4 4 3 3 4 4 4 3 3 3 4 5 5 5 4 4 4 3 3 2 2 2 3 3 3 3 3 2 2 3
9 8 7 7 7 7 8 9 12 10 12 12 10 7 5 6 6 8 9 8 8 7 6 5 4 4 4 3 3 3 3 3 3 2 2 3 3 4 4 4 3 3 4
8 7 6 6 6 6 6 7 7 8 11 12 11 11 10 9 10 10 10 11 10 9 7 5 4 4 3 3 3 3 3 3 3 3 3 3 4 4 4 4 4 4 4
8 8 7 5 5 5 5 5 6 6 5 5 6 9 10 11 11 11 10 10 8 8 5 4 4 3 3 3 3 3 3 4 3 3 3 4 4 4 4 5 4 5 5
8 6 6 6 6 6 5 6 6 6 5 4 4 5 7 8 10 11 9 7 5 4 4 3 3 3 3 4 3 3 4 4 4 4 4 4 4 4 4 5 5 7 6
8 11 9 7 7 6 6 6 6 6 5 5 4 3 3 5 6 5 5 4 4 3 3 3 3 3 3 3 4 4 4 4 4 4 4 5 5 4 5 6 6 6 6
7 8 11 9 7 7 6 6 6 6 5 5 4 4 6 5 5 4 4 4 3 3 4 4 3 3 3 3 3 4 4 4 4 5 5 5 5 5 5 6 6 6 6
7 7 7 7 7 7 6 6 6 6 6 6 4 6 9 6 5 4 4 4 4 3 3 3 3 3 3 3 3 4 4 4 5 6 6 6 5 6 6 6 7 6 7
8 8 8 7 7 8 7 6 6 6 6 5 5 5 5 5 4 4 4 4 4 3 4 4 3 4 5 6 6 4 3 4 5 6 6 6 6 6 6 7 8 8 8
8 8 8 7 7 7 6 6 6 6 6 5 5 5 4 4 4 4 4 4 4 4 6 6 5 5 7 7 7 7 7 8 8 7 7 6 7 7 7 7 8 8 8
7 7 7 6 6 5 5 5 5 5 5 5 4 4 4 4 4 4 4 4 5 5 6 7 7 7 8 9 9 10 12 13 11 10 8 5 7 8 8 8 8 8 8
7 7 6 5 5 5 5 5 5 5 5 4 4 4 4 3 3 3 3 4 4 4 5 6 8 8 9 10 11 13 14 14 14 13 9 6 6 7 7 7 8 7 8
Wind_Direction
181 182 181 182 182 182 184 188 184 182 185 184 185 183 186 187 182 181 186 184 188 201 204 200 217 210 197 200 183 178 179 168 205 256 251 252 215 226 217 221 228 229 236
181 178 181 181 177 179 183 184 179 180 185 187 183 183 188 188 183 184 188 188 189 197 205 205 222 215 206 206 190 194 193 186 186 229 251 243 233 231 225 233 238 239 238
174 173 176 179 181 184 185 185 183 181 182 185 183 185 188 184 183 187 186 187 195 201 200 200 212 204 213 211 203 205 213 204 185 198 235 241 250 242 225 255 258 262 257
169 171 178 184 184 184 183 178 176 175 173 175 179 180 178 174 179 187 183 182 191 198 201 201 202 200 208 208 209 211 208 207 200 200 228 243 247 255 185 236 272 268 271
167 175 183 179 174 170 167 165 160 163 169 164 165 167 167 173 190 189 186 187 186 194 202 208 214 217 218 210 208 203 197 198 202 207 227 238 245 237 228 226 242 268 277
160 173 172 167 165 164 165 159 155 156 152 147 155 158 163 183 184 184 184 184 186 195 210 217 227 230 231 224 221 203 192 196 203 204 221 233 246 236 234 228 230 258 280
162 166 160 156 161 165 158 149 154 154 146 147 156 153 159 176 181 186 185 182 190 204 213 217 230 234 225 230 233 227 219 214 199 192 211 228 233 226 218 236 233 233 242
154 157 156 154 155 148 142 147 155 149 148 155 159 159 154 181 192 195 187 179 190 207 207 204 210 235 230 216 225 235 240 236 222 213 219 232 234 226 214 222 233 250 266
140 139 138 141 146 141 139 143 147 141 141 146 141 142 145 153 165 178 170 169 180 205 212 206 199 221 246 211 205 238 261 271 257 244 245 248 250 251 229 210 249 257 280
125 122 124 132 136 138 140 132 122 122 126 122 112 108 108 82 54 129 155 149 163 197 188 202 186 208 262 218 208 229 259 271 291 299 280 280 274 276 252 217 220 235 256
111 108 102 104 108 111 110 107 108 107 104 101 93 79 72 61 58 74 106 128 159 137 80 351 323 350 354 320 224 220 243 261 289 285 287 296 302 294 279 248 222 217 233
93 92 87 85 91 92 92 91 93 101 96 89 85 73 54 49 55 62 69 71 80 97 86 350 331 354 4 10 10 303 298 322 357 337 314 305 302 296 291 282 263 249 241
89 88 86 81 75 76 84 88 86 90 97 93 87 80 61 43 41 48 58 62 66 74 43 26 30 32 26 23 15 358 8 33 20 323 300 293 286 287 296 303 300 287 281
89 86 85 86 80 71 70 74 82 85 94 97 95 90 74 51 36 29 35 45 54 55 38 26 34 39 37 23 13 14 20 18 355 295 293 293 300 311 312 307 301 309 309
88 86 83 82 86 80 71 63 73 66 96 110 107 105 96 68 22 38 54 49 51 55 53 47 41 33 29 25 23 21 19 19 6 339 324 318 318 320 312 310 297 303 294
91 86 86 88 87 90 91 74 53 64 70 76 83 90 76 75 72 64 57 53 54 59 69 58 45 36 32 23 15 8 6 357 345 340 329 319 315 311 308 310 305 297 291
94 94 92 92 95 98 100 102 89 55 53 60 66 71 75 71 64 61 61 60 56 61 65 54 42 28 20 15 11 6 357 348 347 344 331 321 317 315 313 307 306 303 297
86 87 91 93 94 96 98 98 99 98 79 48 42 57 65 67 64 60 60 62 50 45 51 47 33 17 8 4 1 355 344 341 341 331 321 318 316 314 313 309 305 301 301
79 82 85 85 84 86 88 88 88 89 90 80 59 45 51 65 63 57 58 65 61 44 32 24 13 7 2 356 352 348 341 336 336 335 330 325 320 313 306 303 302 302 301
74 80 83 83 80 78 80 83 84 85 83 79 71 57 49 62 59 46 45 50 51 34 15 8 4 6 1 351 347 347 347 345 344 338 327 323 319 314 307 306 304 304 301
75 75 76 77 77 80 83 84 85 87 87 81 67 62 79 79 72 56 45 36 33 25 16 12 11 11 6 359 354 352 350 342 337 331 325 321 319 315 308 302 301 299 298
76 75 74 77 78 76 77 76 79 82 82 79 63 61 70 70 66 55 39 27 23 19 13 16 11 3 358 353 349 344 339 334 332 329 320 315 313 310 308 306 305 305 303
77 77 74 73 75 75 73 69 74 76 76 75 72 66 62 60 54 48 35 20 16 13 13 19 14 5 5 7 3 351 333 323 318 317 316 313 312 310 308 306 305 306 306
79 80 79 76 72 71 71 69 70 73 73 71 69 67 63 57 49 37 24 15 15 15 18 20 19 14 8 5 1 354 345 334 325 316 309 303 305 305 305 303 302 301 301
80 80 80 79 78 76 75 73 71 71 72 72 70 66 60 56 45 30 16 15 20 22 20 21 18 12 3 358 355 350 345 342 337 329 316 302 297 300 304 305 306 308 307
80 81 78 76 76 76 77 76 74 74 73 71 68 66 62 54 42 29 18 15 14 13 13 13 8 6 4 360 353 349 347 345 342 337 326 307 303 305 311 311 313 316 317
Height
1485 1488 1490 1493 1495 1498 1501 1504 1507 1511 1514 1517 1520 1523 1525 1528 1530 1532 1534 1536 1538 1540 1541 1542 1543 1545 1546 1547 1548 1548 1549 1549 1549 1549 1550 1550 1550 1551 1551 1552 1552 1552 1552
1484 1486 1488 1490 1493 1495 1498 1501 1505 1508 1511 1514 1517 1519 1522 1524 1527 1529 1531 1533 1535 1536 1538 1539 1540 1541 1542 1543 1544 1544 1545 1545 1546 1545 1546 1546 1547 1547 1547 1548 1548 1548 1548
1482 1484 1486 1488 1490 1493 1496 1499 1502 1505 1508 1511 1514 1516 1519 1521 1523 1526 1528 1530 1531 1533 1534 1535 1536 1537 1538 1539 1540 1541 1541 1541 1541 1542 1542 1542 1542 1543 1543 1543 1543 1543 1543
1481 1483 1484 1486 1489 1491 1494 1497 1500 1502 1505 1508 1510 1513 1516 1518 1520 1522 1525 1526 1528 1529 1531 1532 1533 1533 1534 1535 1536 1536 1537 1537 1537 1537 1537 1537 1538 1538 1538 1538 1538 1538 1538
1480 1481 1483 1485 1488 1490 1493 1495 1498 1501 1503 1506 1508 1510 1513 1515 1517 1519 1521 1523 1524 1526 1527 1528 1529 1530 1530 1531 1532 1532 1533 1533 1533 1533 1533 1533 1533 1533 1533 1533 1533 1533 1532
1479 1480 1482 1484 1487 1489 1492 1494 1497 1499 1501 1504 1506 1508 1510 1512 1514 1516 1518 1519 1520 1522 1523 1524 1525 1526 1527 1527 1528 1528 1528 1529 1528 1529 1528 1528 1528 1529 1529 1528 1528 1527 1526
1478 1479 1481 1483 1485 1488 1491 1493 1495 1497 1500 1502 1504 1505 1507 1509 1512 1513 1515 1516 1517 1518 1520 1521 1521 1522 1523 1523 1524 1524 1524 1524 1524 1524 1524 1524 1524 1524 1524 1523 1522 1522 1520
1477 1478 1480 1482 1484 1487 1489 1491 1493 1496 1498 1500 1502 1504 1505 1507 1509 1511 1512 1513 1514 1515 1516 1517 1518 1518 1519 1520 1520 1519 1519 1519 1519 1519 1519 1519 1519 1519 1518 1518 1517 1516 1515
1476 1478 1479 1482 1484 1486 1488 1490 1493 1495 1496 1498 1500 1502 1504 1506 1507 1508 1509 1510 1511 1512 1512 1513 1514 1514 1515 1515 1516 1515 1515 1515 1515 1515 1515 1514 1514 1514 1513 1512 1511 1510 1508
1476 1478 1479 1482 1484 1485 1487 1489 1492 1493 1495 1497 1499 1501 1502 1503 1505 1505 1507 1507 1508 1508 1509 1510 1510 1511 1511 1511 1511 1511 1511 1511 1511 1510 1510 1510 1509 1508 1508 1507 1506 1505 1503
1477 1478 1480 1481 1484 1485 1487 1489 1491 1492 1494 1496 1498 1499 1501 1502 1503 1503 1504 1504 1505 1505 1506 1506 1507 1507 1507 1507 1507 1507 1507 1507 1506 1506 1505 1505 1504 1503 1503 1502 1501 1500 1499
1478 1479 1480 1482 1484 1486 1487 1489 1490 1492 1494 1496 1497 1498 1500 1500 1501 1501 1502 1502 1502 1502 1502 1503 1504 1503 1504 1504 1504 1504 1504 1503 1503 1502 1501 1500 1500 1499 1498 1497 1496 1495 1494
1479 1480 1482 1483 1485 1486 1488 1489 1491 1492 1494 1495 1497 1498 1499 1500 1500 1500 1501 1501 1501 1501 1501 1501 1501 1501 1501 1501 1501 1501 1500 1500 1499 1499 1498 1497 1496 1495 1494 1492 1491 1489 1488
1481 1482 1484 1485 1487 1488 1490 1491 1492 1493 1495 1496 1497 1498 1499 1500 1500 1500 1499 1499 1499 1499 1500 1500 1500 1500 1499 1499 1499 1498 1497 1496 1496 1495 1494 1493 1492 1490 1489 1487 1485 1483 1481
1484 1485 1486 1488 1489 1490 1492 1493 1494 1496 1497 1498 1498 1499 1500 1500 1500 1500 1499 1499 1498 1498 1498 1498 1498 1497 1497 1496 1496 1495 1495 1494 1493 1492 1490 1489 1487 1485 1484 1482 1480 1478 1476
1486 1488 1489 1491 1492 1493 1494 1496 1497 1498 1499 1499 1500 1501 1501 1501 1501 1500 1500 1499 1499 1498 1498 1497 1496 1496 1495 1495 1494 1493 1492 1490 1489 1488 1487 1485 1484 1482 1479 1477 1475 1473 1471
1490 1491 1493 1494 1495 1496 1497 1498 1499 1501 1501 1502 1502 1502 1502 1502 1501 1501 1500 1500 1499 1498 1497 1497 1496 1495 1494 1493 1492 1491 1490 1488 1487 1486 1484 1482 1480 1478 1475 1473 1471 1468 1466
1493 1495 1496 1497 1499 1500 1500 1501 1502 1502 1503 1504 1504 1504 1503 1503 1503 1502 1502 1501 1500 1499 1498 1497 1496 1495 1494 1493 1491 1489 1488 1486 1484 1482 1480 1478 1476 1473 1471 1469 1466 1464 1461
1496 1498 1499 1500 1501 1502 1503 1503 1504 1504 1505 1505 1505 1505 1505 1505 1504 1504 1503 1501 1500 1499 1498 1497 1496 1495 1493 1492 1490 1488 1485 1483 1481 1479 1476 1474 1472 1469 1467 1465 1462 1459 1457
1499 1501 1501 1502 1503 1504 1504 1505 1505 1506 1506 1506 1506 1506 1506 1505 1504 1504 1503 1502 1501 1500 1499 1497 1496 1494 1492 1490 1487 1485 1483 1480 1478 1475 1473 1470 1468 1465 1463 1460 1457 1455 1452
1502 1503 1504 1504 1505 1506 1506 1507 1507 1507 1507 1507 1507 1507 1507 1506 1505 1504 1503 1502 1501 1500 1498 1496 1495 1493 1490 1488 1485 1483 1480 1477 1475 1472 1469 1466 1464 1461 1459 1456 1453 1451 1448
1505 1505 1506 1506 1507 1507 1508 1508 1508 1508 1508 1508 1508 1508 1507 1507 1506 1505 1504 1502 1501 1499 1498 1496 1493 1491 1489 1486 1483 1480 1477 1474 1471 1468 1466 1463 1460 1458 1455 1452 1450 1447 1445
1507 1507 1508 1508 1509 1509 1509 1509 1509 1509 1509 1509 1509 1508 1508 1507 1506 1505 1503 1502 1500 1499 1497 1494 1492 1490 1487 1484 1481 1478 1475 1471 1468 1465 1462 1460 1457 1454 1452 1449 1446 1444 1441
1509 1509 1510 1510 1510 1510 1510 1510 1510 1510 1510 1510 1509 1509 1508 1507 1506 1505 1503 1501 1499 1497 1495 1493 1491 1488 1485 1482 1479 1476 1473 1469 1466 1463 1460 1457 1455 1452 1449 1446 1444 1441 1438
1511 1511 1511 1511 1511 1511 1511 1511 1511 1511 1510 1510 1510 1509 1508 1507 1506 1504 1503 1501 1498 1496 1494 1492 1489 1487 1484 1481 1477 1474 1471 1468 1465 1462 1459 1456 1453 1450 1447 1444 1441 1439 1436
1512 1512 1512 1512 1512 1512 1512 1512 1511 1511 1511 1510 1510 1509 1508 1507 1505 1504 1502 1500 1497 1495 1493 1491 1488 1485 1482 1479 1476 1472 1469 1466 1463 1460 1457 1454 1452 1449 1446 1443 1440 1437 1435